Home > Time Zones > World Clock > Weather > U.S.A. > Erie > Past weeks

Flag for U.S.A. Weather past 2 weeks in Erie, Pennsylvania, U.S.A.

Now
76 °F

Sunny.


Feels Like: 78 °F
Forecast: 62 / 77 °F
Wind: 7 mph from Northeast

Location: Erie International Airport

Current Time: Jul 5, 2015 at 3:43:53 PM

Latest Report: Jul 5, 2015 at 2:51 PM


Visibility: 10 mi

Pressure: 30.13 "Hg

Humidity: 48%

Dew point: 55 °F

Location of ErieLocation

Historic Weather in Erie — Graph

°F

Erie temperature yesterday

Maximum temperature yesterday: 73 °F (at 2:51 PM)
Minimum temperature yesterday: 57 °F (at 5:51 AM)
Average temperature yesterday: 66 °F

Past Weeks' High & Low Weather Summary

 TemperatureHumidityPressure
High86 °F (Jun 22, 4:51 PM)90% (Jun 26, 3:51 AM)30.15 "Hg (Jun 26, 3:51 AM)
Low52 °F (Jul 3, 3:51 AM)37% (Jun 24, 5:51 PM)29.59 "Hg (Jun 28, 4:51 AM)
Average67 °F70%29.91 "Hg
* Reported Jun 20 1:51 PM — Jul 5 1:51 PM, Erie, Weather by CustomWeather, © 2015

Note: Actual official high and low records may vary slightly from our data, if they occured in-between our weather recording intervals... More about our weather records

Advertising

Erie weather history for previous 24 hours

 ConditionsComfort  
Time TempWeatherWind HumidityBarometerVisibility
1:51 PM
Sun, Jul 5
76 °FSunny.8 mph47%30.14 "Hg10 mi
12:51 PM76 °FSunny.8 mph47%30.14 "Hg10 mi
11:51 AM76 °FSunny.7 mph45%30.15 "Hg10 mi
10:51 AM76 °FSunny.7 mph50%30.15 "Hg10 mi
9:51 AM73 °FSunny.No wind53%30.14 "Hg10 mi
8:51 AM69 °FSunny.6 mph63%30.14 "Hg10 mi
7:51 AM62 °FSunny.5 mph75%30.14 "Hg10 mi
6:51 AM59 °FSunny.5 mph78%30.13 "Hg10 mi
5:51 AM58 °FClear.5 mph81%30.10 "Hg10 mi
4:51 AM58 °FClear.3 mph81%30.09 "Hg10 mi
3:51 AM59 °FClear.5 mph78%30.08 "Hg10 mi
2:51 AM59 °FClear.5 mph78%30.09 "Hg10 mi
1:51 AM60 °FClear.5 mph75%30.08 "Hg10 mi
12:51 AM61 °FClear.6 mph75%30.08 "Hg10 mi
11:51 PM
Sat, Jul 4
61 °FClear.6 mph78%30.07 "Hg8 mi
10:51 PM62 °FClear.5 mph75%30.04 "Hg8 mi
9:51 PM64 °FSunny.3 mph73%30.02 "Hg10 mi
8:51 PM67 °FSunny.3 mph68%30.00 "Hg10 mi
7:51 PM70 °FSunny.6 mph61%30.00 "Hg10 mi
6:51 PM71 °FSunny.6 mph53%29.99 "Hg10 mi
5:51 PM72 °FSunny.8 mph46%29.99 "Hg10 mi
4:51 PM73 °FSunny.7 mph48%30.00 "Hg10 mi
3:51 PM72 °FSunny.6 mph46%30.00 "Hg10 mi
Weather by CustomWeather, © 2015

See weather overviewHow to use our weather pages